Airfield :
LOGIN :

Register | Disclaimer

   EN    FR    IT 

 










Legend :    VFR   Marginal VFR   IFR   Intensive IFR   Very Intensive IFR
Visi :
Ceiling :
>= 8 km
>= 3000ft
5 to 8 km
1000 to 3000 ft
1500m to 5 km
500 to 1000 ft
800 to 1500m
200 to 500 ft
< 800m
< 200 ft
Symbols :   Thunderstorms  Fog  Heavy snow  Heavy precipitations  Wind > 20 kt
SIGMETs :     Misc.  Thunderstorms  Icing  Turbulence  Mountain Waves  Volcanic Ashes







- Airport Elevation : 1548 ft


LKNA - Náměšť Air Base

CURRENT METAR :
  • 201500Z 07006KT 040V120 CAVOK 20/05 Q1021 NOSIG

EXPIRED METARs :
  • 201400Z 08006KT 030V140 CAVOK 20/07 Q1021 NOSIG RMK BLU BLU
  • 201300Z 07010KT CAVOK 19/07 Q1022 NOSIG RMK BLU BLU

TAF TAF LKNA
Valid from the 20 at 12:00 until the 21 at 12:00 UTC


201100Z 2012/2112 05012KT CAVOK
TEMPO 2012/2020 BKN030
TEMPO 2102/2106 BKN010
No reported NOTAMs for that airfield.



MET'MAP, your aeronautical weather chart ! - Copyright ORBIFLY December 2007 - Disclaimer

ORBIFLY MET'MAP TEAM :

Programming & Development : Alexandra Zaïnal
Concept & Development : Baudouin d'Aumeries
Co-Development & Prog : Marc-Olivier Méhu
Technical & hardware support : Manuel Goepfert

Contact : metmap@orbifly.com




SOURCES & CREDITS :

   NOAA